When you browse on this site, cookies collect data to enhance your experience and personalize the content and advertising you see.
Visit our Privacy Policy to learn more. By continuing to use the site, you agree to this use of cookies and data.
  • En España
  • Lista de países
  • Para 7 días
  • Temperatura del agua
  • Mapa Satelital
  • El tiempo en el mapa
  • Informadores
  • user-avatar
    Iniciar sesión

    Tiempo cada hora Innsbruck

    Hoy, 22 Febrero, Viernes

    Tiempo Temperatura Precipitaciones Viento Presión Humedad
    00:00 -6°C° 0 mm 2 mps 599 mmHg 84%
    01:00 -6°C° 0 mm 2 mps 599 mmHg 83%
    02:00 -6°C° 0 mm 2 mps 599 mmHg 84%
    03:00 -6°C° 0 mm 2 mps 599 mmHg 85%
    04:00 -6°C° 0 mm 2 mps 599 mmHg 85%
    05:00 -5°C° 0.1 mm 2 mps 599 mmHg 87%
    06:00 -5°C° 0.1 mm 2 mps 599 mmHg 89%
    07:00 -4°C° 0.1 mm 2 mps 599 mmHg 90%
    08:00 -5°C° 0.6 mm 3 mps 600 mmHg 92%
    09:00 -5°C° 0.6 mm 3 mps 600 mmHg 93%
    10:00 -4°C° 0.6 mm 3 mps 600 mmHg 94%
    11:00 -4°C° 0.6 mm 3 mps 600 mmHg 95%
    12:00 -4°C° 0.6 mm 3 mps 600 mmHg 96%
    13:00 -4°C° 0.6 mm 3 mps 600 mmHg 96%
    14:00 -4°C° 0.1 mm 3 mps 600 mmHg 96%
    15:00 -4°C° 0.1 mm 3 mps 600 mmHg 96%
    16:00 -3°C° 0.1 mm 2 mps 600 mmHg 96%
    17:00 -4°C° 0 mm 2 mps 600 mmHg 96%
    18:00 -5°C° 0 mm 2 mps 600 mmHg 96%
    19:00 -4°C° 0 mm 1 mps 600 mmHg 96%
    20:00 -6°C° 0 mm 1 mps 601 mmHg 95%
    21:00 -6°C° 0 mm 1 mps 601 mmHg 94%
    22:00 -6°C° 0 mm 1 mps 601 mmHg 93%
    23:00 -7°C° 0 mm 1 mps 601 mmHg 90%

    Mañana, 23 Febrero, Sábado

    Tiempo Temperatura Precipitaciones Viento Presión Humedad
    00:00 -7°C° 0 mm 1 mps 601 mmHg 87%
    01:00 -8°C° 0 mm 1 mps 601 mmHg 84%
    02:00 -8°C° 0 mm 1 mps 600 mmHg 77%
    03:00 -8°C° 0 mm 1 mps 600 mmHg 70%
    04:00 -8°C° 0 mm 1 mps 600 mmHg 63%
    05:00 -8°C° 0 mm 1 mps 600 mmHg 59%
    06:00 -8°C° 0 mm 1 mps 600 mmHg 54%
    07:00 -9°C° 0 mm 2 mps 600 mmHg 49%
    08:00 -6°C° 0 mm 1 mps 601 mmHg 54%
    09:00 -3°C° 0 mm 1 mps 602 mmHg 58%
    10:00 -1°C° 0 mm 1 mps 603 mmHg 62%
    11:00 -3°C° 0 mm 2 mps 603 mmHg 65%
    12:00 -2°C° 0 mm 2 mps 603 mmHg 67%
    13:00 -2°C° 0 mm 2 mps 603 mmHg 69%
    14:00 -2°C° 0 mm 2 mps 603 mmHg 70%
    15:00 -2°C° 0 mm 2 mps 602 mmHg 71%
    16:00 -2°C° 0 mm 2 mps 602 mmHg 72%
    17:00 -4°C° 0 mm 2 mps 602 mmHg 70%
    18:00 -3°C° 0 mm 1 mps 601 mmHg 68%
    19:00 -6°C° 0 mm 1 mps 601 mmHg 66%
    20:00 -6°C° 0 mm 1 mps 601 mmHg 61%
    21:00 -6°C° 0 mm 1 mps 601 mmHg 56%
    22:00 -6°C° 0 mm 1 mps 602 mmHg 52%
    23:00 -6°C° 0 mm 1 mps 602 mmHg 50%

    Pasado mañana, 24 Febrero, Domingo

    Tiempo Temperatura Precipitaciones Viento Presión Humedad
    00:00 -6°C° 0 mm 1 mps 602 mmHg 48%
    01:00 -4°C° 0 mm 1 mps 602 mmHg 47%
    02:00 -4°C° 0 mm 1 mps 602 mmHg 47%
    03:00 -4°C° 0 mm 1 mps 601 mmHg 47%
    04:00 -4°C° 0 mm 1 mps 601 mmHg 47%
    05:00 -4°C° 0 mm 1 mps 601 mmHg 48%
    06:00 -4°C° 0 mm 1 mps 602 mmHg 49%
    07:00 -4°C° 0 mm 1 mps 602 mmHg 50%
    08:00 -3°C° 0 mm 1 mps 603 mmHg 56%
    09:00 -1°C° 0 mm 1 mps 603 mmHg 62%
    10:00 +1°C° 0 mm 1 mps 604 mmHg 68%
    11:00 +1°C° 0 mm 1 mps 604 mmHg 71%
    12:00 +2°C° 0 mm 1 mps 604 mmHg 74%
    13:00 +2°C° 0 mm 1 mps 604 mmHg 77%
    14:00 +2°C° 0 mm 1 mps 604 mmHg 78%
    15:00 +2°C° 0 mm 1 mps 604 mmHg 80%
    16:00 +2°C° 0 mm 1 mps 604 mmHg 81%
    17:00 0°C° 0 mm 1 mps 603 mmHg 81%
    18:00 -1°C° 0 mm 1 mps 603 mmHg 80%
    19:00 -3°C° 0 mm 1 mps 603 mmHg 79%
    20:00 -3°C° 0 mm 1 mps 603 mmHg 76%
    21:00 -3°C° 0 mm 1 mps 603 mmHg 73%
    22:00 -3°C° 0 mm 1 mps 604 mmHg 70%
    23:00 -3°C° 0 mm 1 mps 604 mmHg 69%

    25 Febrero, Lunes

    Tiempo Temperatura Precipitaciones Viento Presión Humedad
    00:00 -3°C° 0 mm 1 mps 604 mmHg 68%
    01:00 -2°C° 0 mm 1 mps 604 mmHg 67%
    02:00 -2°C° 0 mm 1 mps 604 mmHg 67%
    03:00 -2°C° 0 mm 1 mps 604 mmHg 67%
    04:00 -2°C° 0 mm 1 mps 603 mmHg 67%
    05:00 -3°C° 0 mm 1 mps 603 mmHg 67%
    06:00 -3°C° 0 mm 1 mps 603 mmHg 67%
    07:00 -3°C° 0 mm 1 mps 603 mmHg 68%
    08:00 -1°C° 0 mm 1 mps 604 mmHg 70%
    09:00 +1°C° 0 mm 1 mps 605 mmHg 72%
    10:00 +2°C° 0 mm 1 mps 605 mmHg 75%
    11:00 +3°C° 0 mm 1 mps 605 mmHg 74%
    12:00 +4°C° 0 mm 1 mps 605 mmHg 73%
    13:00 +5°C° 0 mm 1 mps 605 mmHg 73%
    14:00 +4°C° 0 mm 1 mps 605 mmHg 76%
    15:00 +4°C° 0 mm 1 mps 605 mmHg 79%
    16:00 +4°C° 0 mm 1 mps 605 mmHg 83%
    17:00 +2°C° 0 mm 1 mps 604 mmHg 83%
    18:00 +1°C° 0 mm 1 mps 604 mmHg 84%
    19:00 -1°C° 0 mm 1 mps 603 mmHg 84%
    20:00 -1°C° 0 mm 1 mps 603 mmHg 80%
    21:00 -1°C° 0 mm 1 mps 603 mmHg 77%
    22:00 -1°C° 0 mm 1 mps 603 mmHg 73%
    23:00 -2°C° 0 mm 1 mps 603 mmHg 70%

    26 Febrero, Martes

    Tiempo Temperatura Precipitaciones Viento Presión Humedad
    00:00 -2°C° 0 mm 1 mps 603 mmHg 67%
    01:00 -2°C° 0 mm 1 mps 603 mmHg 65%
    02:00 -2°C° 0 mm 1 mps 603 mmHg 63%
    03:00 -2°C° 0 mm 1 mps 602 mmHg 62%
    04:00 -2°C° 0 mm 1 mps 602 mmHg 60%
    05:00 -2°C° 0 mm 1 mps 602 mmHg 57%
    06:00 -2°C° 0 mm 1 mps 602 mmHg 54%
    07:00 -2°C° 0 mm 1 mps 602 mmHg 51%
    08:00 -1°C° 0 mm 1 mps 603 mmHg 53%
    09:00 +1°C° 0 mm 1 mps 603 mmHg 55%
    10:00 +3°C° 0 mm 1 mps 604 mmHg 57%
    11:00 +4°C° 0 mm 1 mps 604 mmHg 58%
    12:00 +4°C° 0 mm 1 mps 604 mmHg 59%
    13:00 +4°C° 0 mm 2 mps 604 mmHg 60%
    14:00 +4°C° 0 mm 2 mps 604 mmHg 63%
    15:00 +3°C° 0 mm 2 mps 603 mmHg 67%
    16:00 +3°C° 0 mm 2 mps 603 mmHg 71%
    17:00 +2°C° 0 mm 1 mps 602 mmHg 71%
    18:00 +1°C° 0 mm 1 mps 602 mmHg 71%
    19:00 -1°C° 0 mm 1 mps 601 mmHg 70%
    20:00 -1°C° 0 mm 1 mps 601 mmHg 66%
    21:00 -1°C° 0 mm 1 mps 601 mmHg 62%
    22:00 -1°C° 0 mm 1 mps 601 mmHg 58%
    23:00 -1°C° 0 mm 1 mps 601 mmHg 58%

    27 Febrero, Miércoles

    Tiempo Temperatura Precipitaciones Viento Presión Humedad
    00:00 -1°C° 0 mm 1 mps 601 mmHg 58%
    01:00 -1°C° 0 mm 1 mps 601 mmHg 58%
    02:00 -1°C° 0 mm 1 mps 601 mmHg 57%
    03:00 -1°C° 0 mm 1 mps 600 mmHg 57%
    04:00 -1°C° 0 mm 1 mps 600 mmHg 56%
    05:00 -1°C° 0 mm 1 mps 600 mmHg 57%
    06:00 -1°C° 0 mm 1 mps 600 mmHg 57%
    07:00 -1°C° 0 mm 1 mps 600 mmHg 58%
    08:00 +1°C° 0 mm 1 mps 601 mmHg 60%
    09:00 +3°C° 0 mm 1 mps 601 mmHg 62%
    10:00 +4°C° 0 mm 1 mps 602 mmHg 64%
    11:00 +4°C° 0 mm 0 mps 602 mmHg 63%
    12:00 +5°C° 0 mm 0 mps 602 mmHg 62%
    13:00 +6°C° 0 mm 0 mps 602 mmHg 61%
    14:00 +6°C° 0 mm 0 mps 602 mmHg 65%
    15:00 +6°C° 0 mm 0 mps 601 mmHg 69%
    16:00 +5°C° 0 mm 0 mps 601 mmHg 73%
    17:00 +4°C° 0 mm 0 mps 600 mmHg 74%
    18:00 +3°C° 0 mm 1 mps 600 mmHg 76%
    19:00 +1°C° 0 mm 1 mps 599 mmHg 78%
    20:00 +1°C° 0 mm 1 mps 599 mmHg 76%
    21:00 -1°C° 0 mm 2 mps 599 mmHg 74%
    22:00 -1°C° 0 mm 2 mps 599 mmHg 72%
    23:00 -1°C° 0 mm 2 mps 599 mmHg 70%
    Mostrar más